Wind_Speed
36 37 37 37 37 37 37 37 39 40 41 41 40 39 38 39 39 38 37 37 38 39 40 41 42 43 43 44 43 43 42 41 40 39 38 37 36 34 33 34 34 35 36 36 36 36 36 35 35 35 35 34 33 33 33 32 32 33 34 34 35 36 37 39 41 40 39 40 40 40 40 39 40 44 48 48 48 48 46 45 43 41 41 40 38
38 39 39 39 39 38 37 39 40 41 42 42 42 41 40 41 40 40 39 40 40 41 42 43 43 44 44 44 44 43 43 42 41 41 40 39 38 37 36 35 35 35 36 36 37 38 38 38 37 37 38 37 35 35 34 34 33 33 33 34 36 36 36 39 41 41 40 40 41 42 43 43 42 44 47 49 50 50 48 46 45 43 42 40 39
40 40 40 39 38 38 39 41 42 43 43 44 43 42 42 43 42 41 41 41 42 43 43 44 44 44 45 45 44 44 43 43 42 42 42 41 40 39 39 38 37 37 37 37 38 39 39 39 39 40 39 39 37 36 36 35 34 33 33 34 35 36 37 38 40 42 41 40 41 43 45 45 45 46 48 50 50 51 51 49 47 45 43 41 40
40 40 39 39 38 39 41 42 43 44 44 45 45 44 44 44 43 43 43 43 43 43 43 44 44 45 45 44 44 44 44 44 43 43 43 42 42 41 41 41 40 40 39 39 39 40 41 41 41 41 41 40 39 38 37 36 36 35 34 34 35 37 38 39 40 42 42 40 41 43 46 47 45 44 46 49 50 51 53 53 50 47 43 41 42
39 39 39 39 40 41 42 43 44 45 45 46 46 46 45 45 44 44 44 44 44 43 43 44 44 44 44 44 44 44 43 44 44 44 44 44 43 43 42 42 42 42 42 41 41 41 41 42 43 43 43 42 41 40 39 38 37 36 35 34 35 36 38 40 40 41 42 42 42 44 46 47 45 42 42 46 48 50 53 55 51 47 45 42 42
39 39 39 40 41 42 43 44 45 45 46 47 47 46 45 45 45 44 44 44 44 44 45 44 44 44 44 44 44 44 44 44 44 45 45 45 45 45 44 44 44 44 43 43 42 41 41 42 42 44 44 44 43 42 41 40 38 37 36 36 36 37 38 39 41 41 42 42 43 44 46 47 47 44 42 43 46 48 52 54 51 48 46 44 44
40 40 40 41 43 44 44 45 45 46 47 47 46 46 45 45 45 44 44 45 45 45 45 45 45 45 45 45 45 45 45 45 46 46 46 47 47 47 47 46 46 46 46 45 44 43 42 41 41 42 43 43 43 43 43 42 39 38 38 37 36 36 37 39 40 41 41 42 43 43 44 46 47 45 44 45 46 48 51 53 52 50 49 47 47
40 40 41 43 44 44 45 45 46 47 47 46 46 45 45 45 45 44 44 44 44 44 45 45 45 45 46 46 46 46 46 46 46 47 47 48 48 48 49 48 48 48 48 48 47 46 45 43 42 42 42 43 43 43 43 43 41 39 39 39 38 37 37 37 38 40 41 42 44 43 42 44 47 46 45 47 49 50 51 52 52 51 51 49 50
40 41 42 43 44 44 45 46 46 45 45 45 45 45 45 45 45 44 44 44 43 43 43 44 44 45 45 46 46 46 47 47 47 47 47 48 49 49 49 50 50 50 50 50 49 49 48 46 45 44 43 43 43 43 43 44 43 41 40 40 40 38 37 37 37 39 41 42 45 46 43 43 46 47 45 44 45 48 52 54 52 52 53 52 51
41 42 43 43 44 44 44 44 44 44 44 44 44 44 44 44 44 44 44 43 43 42 43 43 44 45 46 47 48 49 50 50 51 51 51 50 50 51 51 51 51 51 51 51 51 51 50 49 48 47 46 44 44 44 44 44 44 43 41 40 41 39 38 38 37 38 39 41 43 45 43 40 40 43 43 40 39 44 50 54 54 54 54 54 52
41 41 42 42 43 43 42 42 42 42 42 43 43 44 44 44 44 43 43 43 43 44 45 46 47 48 50 51 52 53 54 55 56 56 56 56 56 56 56 55 55 54 54 53 53 53 52 52 51 50 48 47 45 45 44 44 44 44 42 41 42 41 39 38 38 37 38 41 42 42 44 42 38 40 45 44 41 42 47 52 55 56 55 54 53
40 40 40 41 40 40 40 40 41 41 42 43 43 43 43 43 42 42 43 44 45 47 48 50 51 52 53 53 54 55 56 56 57 58 59 59 60 60 60 60 59 59 58 58 57 56 55 54 54 53 52 50 48 46 45 44 44 45 43 42 42 42 40 39 39 37 37 40 42 43 45 46 42 39 42 46 45 45 47 52 56 57 56 56 54
38 38 38 38 38 38 38 39 41 42 42 42 42 41 41 41 42 43 45 46 48 49 50 51 52 52 53 53 54 54 55 56 57 58 59 59 60 61 61 61 61 61 61 61 60 60 59 58 57 56 55 53 51 49 47 45 44 45 45 43 42 43 42 40 39 39 38 39 41 43 45 48 47 41 38 40 45 49 51 54 57 57 57 56 54
36 36 36 36 36 37 38 40 41 41 41 40 40 40 41 42 44 45 46 47 48 49 49 50 50 51 52 52 53 54 54 55 56 57 58 59 60 61 62 63 63 63 62 62 61 61 61 60 60 59 58 57 55 53 50 47 45 45 45 45 43 43 43 41 40 40 39 38 40 41 41 46 48 45 41 40 41 44 49 54 58 59 57 57 55
35 35 35 36 37 39 40 40 40 39 39 39 39 41 42 43 44 45 45 45 46 46 47 48 49 49 50 51 51 52 52 53 54 55 56 57 59 60 61 62 64 64 64 64 63 62 61 61 61 60 60 59 58 56 53 50 47 45 45 46 45 44 43 42 41 40 39 38 39 38 37 40 44 45 44 43 40 40 44 52 59 59 57 58 58
34 35 36 37 39 39 39 38 37 37 38 39 40 41 42 43 43 43 43 44 44 45 46 46 47 47 48 49 49 50 51 51 52 53 54 55 56 58 59 61 62 63 64 65 65 64 63 62 61 61 60 60 59 58 56 53 49 47 46 45 46 46 44 43 42 41 40 39 39 38 35 35 38 41 43 43 41 40 43 49 57 61 59 59 59
34 36 37 38 38 38 37 37 37 37 38 39 40 40 40 40 41 41 42 43 43 44 44 45 46 46 47 48 49 50 51 51 52 52 53 54 55 56 57 59 60 61 62 63 64 65 64 63 62 61 61 60 59 59 57 55 51 48 46 45 46 46 46 45 44 42 40 39 39 40 37 33 34 38 41 41 40 40 42 44 52 60 61 59 59
35 36 36 36 36 36 36 36 36 37 38 38 38 37 38 38 39 40 41 42 43 44 44 45 46 47 48 50 50 51 51 51 52 52 53 54 55 56 57 58 59 59 60 60 61 62 63 63 62 61 60 60 59 58 57 56 53 50 47 45 46 47 47 46 44 43 42 40 39 40 39 35 35 38 40 39 38 39 40 42 47 56 61 59 59
34 34 34 34 34 34 34 35 35 36 36 35 35 35 36 37 39 40 41 42 43 44 45 46 47 48 49 49 50 50 50 51 52 52 54 55 56 58 59 59 59 58 58 57 57 58 59 60 61 61 60 60 59 58 57 55 53 51 48 46 45 47 48 47 44 43 43 42 39 40 41 39 37 40 41 40 39 38 39 42 46 52 57 59 59
32 32 32 32 32 33 33 33 34 33 33 33 33 34 36 37 38 40 41 42 43 44 45 46 47 48 48 48 48 49 49 50 51 52 54 56 58 59 60 60 58 56 54 53 53 53 54 56 58 59 59 59 58 57 56 55 53 51 49 46 45 47 48 46 44 43 43 42 40 40 41 40 39 39 41 42 42 40 39 41 45 49 55 60 61
29 29 29 30 31 31 32 31 31 30 30 31 33 34 36 37 38 39 40 41 42 44 45 45 45 46 46 46 47 47 48 49 51 52 54 56 59 61 61 59 56 53 50 48 48 48 49 50 52 55 56 57 57 56 55 54 53 51 49 47 45 46 48 46 44 43 43 43 42 40 40 40 38 38 39 41 42 42 40 41 44 48 53 58 62
27 28 28 29 30 30 29 29 28 28 29 31 33 34 36 36 37 38 39 40 41 42 43 43 43 44 44 45 45 46 47 48 50 52 54 57 60 61 60 57 54 51 48 45 43 43 44 45 46 49 52 54 54 54 54 52 52 51 50 48 46 46 48 47 45 44 42 42 43 42 40 39 39 37 37 38 40 40 38 39 43 48 52 55 60
26 27 28 28 28 27 27 27 27 28 30 32 33 34 35 35 36 37 38 39 40 40 41 41 42 42 43 43 43 44 46 48 49 52 54 57 60 61 58 55 53 51 48 44 40 38 39 40 41 42 46 49 51 52 52 51 51 50 50 49 47 47 48 48 46 44 42 43 44 43 39 38 39 37 35 37 38 37 34 34 39 46 51 52 54
26 26 26 26 26 25 25 26 27 29 31 32 33 33 34 34 35 36 37 38 38 38 39 40 40 41 41 41 42 43 45 47 49 52 54 58 60 60 56 53 52 50 48 45 41 37 35 35 37 37 40 43 46 48 50 50 50 49 50 50 49 49 49 49 46 45 45 45 44 41 38 37 39 38 34 34 37 37 34 32 35 42 48 49 49
25 24 24 24 24 24 25 27 29 30 31 31 32 32 32 33 33 34 35 36 36 37 38 39 39 39 39 40 40 42 44 46 49 51 54 57 60 58 54 52 51 48 45 43 42 38 34 32 33 34 35 37 41 44 47 49 49 48 49 50 50 50 50 49 47 47 47 45 42 40 39 38 39 40 35 32 35 38 36 33 33 36 42 45 46
23 22 22 23 23 24 26 28 30 30 31 31 31 31 31 31 32 33 33 34 35 36 37 38 38 39 38 39 39 41 43 45 47 50 52 56 58 55 52 51 50 46 43 41 40 38 35 32 31 31 31 33 36 39 43 46 47 47 48 49 50 51 51 50 48 47 47 45 42 40 40 39 39 41 38 33 32 35 37 36 35 35 38 41 42
21 21 21 22 24 26 27 29 30 30 30 30 30 29 29 30 31 32 32 33 34 35 36 37 37 38 38 38 38 40 42 44 46 48 50 55 57 55 51 50 48 44 42 40 38 36 34 32 30 29 29 29 31 34 38 42 45 46 46 47 49 50 51 50 48 46 45 44 41 39 39 39 40 42 40 36 31 30 34 38 38 37 39 41 42
20 20 21 23 25 26 28 29 29 29 29 29 28 27 27 28 30 30 31 32 33 34 35 36 37 37 37 38 38 40 41 43 45 48 50 54 57 55 51 49 46 42 39 39 37 35 32 30 29 28 27 27 27 29 33 38 42 43 44 45 46 47 49 48 46 45 45 43 40 39 39 39 40 41 41 39 33 27 27 34 39 39 39 40 43
19 20 22 24 26 27 28 29 29 29 28 27 26 25 26 27 28 29 30 31 32 34 35 36 37 37 38 38 39 40 41 43 46 49 51 53 57 56 52 50 47 41 38 37 36 34 31 28 27 26 26 26 26 26 28 32 38 40 41 41 42 43 46 46 44 43 43 40 38 40 41 40 40 40 39 39 36 28 24 28 35 39 40 39 40
19 21 23 25 26 27 28 28 28 27 26 25 24 24 25 26 27 28 29 31 32 33 34 36 37 38 39 40 40 41 42 44 46 49 50 53 56 56 54 52 49 43 39 37 36 34 31 28 25 24 24 25 25 24 25 27 32 36 37 38 38 39 41 42 41 41 41 39 38 40 41 41 41 40 39 39 37 31 26 25 29 35 39 40 40
20 22 23 25 26 27 27 27 26 25 24 23 23 23 24 26 27 27 29 31 32 33 34 35 37 39 40 40 41 41 42 44 45 48 50 52 54 56 54 52 50 44 40 39 37 35 32 29 25 23 22 22 23 23 23 24 27 31 33 34 35 36 37 38 39 40 39 39 38 38 39 40 40 40 39 39 37 34 30 26 26 29 35 38 38
21 23 24 25 26 26 25 25 24 23 21 21 22 23 24 25 26 27 29 30 32 33 34 35 37 38 40 40 41 41 41 43 44 47 49 51 53 55 54 53 50 46 42 40 39 36 33 30 26 22 20 20 20 20 21 21 23 26 29 31 33 34 35 36 37 37 38 38 38 38 39 39 40 40 39 39 38 36 33 29 26 27 30 33 33
22 23 24 24 24 24 23 22 21 20 19 20 21 23 24 24 25 27 28 30 31 33 34 35 37 38 39 40 40 40 41 42 43 46 48 50 52 54 55 53 51 48 44 42 41 37 33 29 27 23 20 18 17 17 17 18 19 21 24 27 29 31 33 34 35 35 36 38 39 39 40 40 40 40 39 38 39 38 35 32 29 27 26 28 30
22 23 23 23 22 21 20 20 19 18 18 19 21 23 23 24 25 27 28 30 32 33 35 35 36 37 39 40 40 40 40 41 42 44 46 48 50 53 55 55 53 50 45 42 41 39 33 28 26 24 20 17 15 15 15 15 16 18 20 22 24 26 29 32 34 35 36 37 38 40 41 40 40 40 39 39 39 40 37 32 30 28 26 26 28
20 21 20 20 19 19 18 18 17 17 17 19 21 22 23 24 25 27 28 30 32 33 35 35 36 37 38 39 40 40 40 41 41 43 45 47 49 51 53 54 52 50 46 43 42 40 35 29 26 23 21 18 15 13 12 13 13 15 16 18 20 21 22 25 29 33 35 36 36 38 39 40 40 41 39 36 36 39 41 37 33 30 28 26 26
18 18 18 18 17 17 17 16 16 16 17 19 21 22 23 25 26 27 28 30 31 33 34 35 36 37 38 39 40 40 40 40 40 41 43 45 47 49 50 52 52 51 48 45 43 42 38 32 27 24 22 19 16 14 12 11 11 12 14 16 19 20 20 20 22 26 30 33 35 36 36 37 38 40 39 37 37 40 43 42 38 35 34 32 30
16 16 17 16 16 15 15 16 16 17 19 20 22 23 24 25 26 27 28 30 31 32 34 35 36 37 38 38 39 40 40 40 40 41 42 44 46 47 48 50 52 52 50 47 44 42 41 36 30 26 23 20 17 15 13 11 10 10 11 13 16 20 22 22 21 21 24 27 31 34 35 35 36 36 37 37 37 38 40 40 39 38 37 36 36
15 15 15 16 15 14 15 16 16 18 20 22 23 24 25 26 27 28 29 29 31 32 33 34 35 36 37 38 39 40 40 40 40 40 40 41 43 46 47 49 50 51 51 49 46 43 41 39 35 29 25 23 20 17 14 12 10 10 10 12 14 17 21 24 24 23 22 23 25 29 32 34 35 36 37 37 35 34 35 36 38 38 38 39 39
15 14 14 15 15 14 14 16 17 18 20 22 23 24 25 26 27 28 29 29 30 31 32 34 35 36 36 37 38 39 40 40 40 40 40 40 41 43 45 47 48 50 50 50 48 45 42 40 38 34 29 25 22 19 16 14 12 10 10 10 12 14 18 22 25 26 25 24 23 24 27 29 32 33 35 37 37 37 37 37 37 37 38 39 41
14 14 14 15 15 15 15 16 17 18 20 22 23 24 25 26 27 28 29 29 30 31 32 33 34 35 36 37 38 38 39 39 40 40 39 39 40 41 43 44 46 47 49 49 49 47 44 41 39 37 33 29 26 22 19 16 14 12 11 10 11 13 15 18 22 26 28 27 26 24 24 25 28 30 32 34 35 37 39 40 40 40 40 40 41
14 14 14 15 15 16 16 16 17 18 20 21 23 24 25 25 26 27 29 30 30 31 32 32 33 34 35 36 37 38 38 39 39 40 39 39 39 40 41 42 43 45 46 48 48 47 46 43 41 38 36 33 30 26 23 20 17 15 13 12 11 12 13 15 18 21 25 27 28 27 25 25 25 27 29 31 32 34 35 36 38 40 42 42 42
14 14 14 14 15 15 15 15 16 17 19 21 22 24 25 25 26 27 28 29 30 31 31 32 32 33 34 35 36 37 38 38 39 39 39 39 39 39 39 40 41 42 43 45 46 46 46 45 42 40 37 35 32 29 27 24 21 18 15 13 12 11 12 13 15 17 20 23 25 27 27 27 27 26 26 27 28 30 32 33 35 36 38 40 42
14 14 14 13 14 14 14 15 16 18 19 21 22 23 24 26 27 28 28 29 30 31 31 31 32 33 34 34 35 36 37 38 38 38 38 38 38 38 38 38 39 40 41 42 43 44 45 45 43 41 39 36 34 31 29 27 24 21 19 16 14 12 12 12 13 15 17 19 21 23 25 26 28 28 27 26 26 26 28 31 33 34 36 37 39
13 13 13 12 13 13 14 15 17 18 20 21 22 23 24 25 27 28 29 29 30 30 31 31 32 32 33 34 34 35 36 36 37 37 37 37 37 37 37 37 38 39 39 40 41 42 43 43 43 42 40 38 36 33 31 29 27 25 22 20 17 15 13 12 11 12 14 16 18 20 22 23 24 25 26 27 27 26 26 27 28 30 32 33 35
13 13 12 12 13 14 15 16 17 19 21 22 23 24 25 26 27 28 29 30 30 30 31 31 32 32 33 33 34 34 35 35 36 36 36 37 36 36 36 36 36 37 38 38 39 39 40 41 41 42 41 40 38 35 33 31 29 27 25 23 21 18 16 14 12 11 12 14 16 18 19 20 21 22 23 24 25 25 26 26 26 26 27 28 29
13 13 13 13 14 15 16 17 18 20 21 23 24 25 25 26 27 28 29 30 30 30 31 31 31 32 32 33 33 34 34 34 35 35 36 36 36 35 35 35 35 35 36 37 37 38 38 39 39 40 40 40 39 37 35 33 31 29 27 25 23 21 19 17 15 13 12 12 13 15 16 18 20 21 21 21 22 22 23 24 25 25 26 26 26
14 14 14 15 16 17 18 18 19 21 22 24 25 26 26 27 28 29 29 30 31 31 31 31 31 31 32 32 33 33 33 34 34 34 34 35 35 35 35 35 34 34 34 35 36 36 36 37 37 38 38 38 38 38 36 35 33 30 28 27 25 24 22 20 18 16 14 13 13 13 14 15 18 19 20 20 20 20 20 21 22 23 24 25 25
16 16 16 16 17 18 19 20 20 22 23 24 25 26 27 28 29 29 30 31 31 31 31 31 31 31 32 32 32 33 33 33 33 33 33 34 34 34 34 34 34 33 33 33 34 34 35 35 35 36 36 36 37 37 36 36 34 33 31 28 26 25 24 22 21 19 17 15 14 13 13 13 14 16 18 19 20 20 20 20 20 20 21 22 23
18 18 18 18 19 20 20 21 22 22 24 25 26 27 28 29 30 30 31 31 32 31 31 31 31 31 31 32 32 32 33 33 33 32 32 33 33 33 33 33 34 33 33 33 33 33 33 33 33 34 34 34 35 35 35 35 35 34 33 31 29 27 25 24 22 21 20 18 16 15 15 14 13 14 15 17 18 19 20 20 20 20 20 20 21
21 20 20 20 20 21 22 23 23 24 24 25 27 28 29 29 30 31 32 32 33 32 32 32 32 32 31 31 32 32 32 33 33 32 32 32 32 32 33 33 33 33 33 32 32 32 32 32 32 32 32 32 33 33 33 34 34 34 33 32 31 29 27 26 24 23 21 20 18 17 16 15 15 14 14 15 16 17 18 19 20 20 20 20 20
23 23 22 22 22 23 23 24 25 25 25 26 27 28 29 30 31 32 33 33 34 34 34 33 33 33 32 32 31 31 32 32 32 32 32 32 31 32 32 32 32 33 33 32 32 32 31 31 31 31 31 31 31 31 32 32 32 32 32 32 32 31 29 28 26 24 23 21 19 18 17 16 16 16 15 15 15 15 16 18 19 19 20 20 20
Wind_Direction
269 270 272 275 277 279 284 288 291 293 294 295 296 296 297 298 299 298 298 297 296 295 294 293 292 291 290 290 289 288 287 286 285 284 284 283 282 281 279 277 277 278 279 281 281 281 282 282 283 284 285 287 290 293 295 295 296 293 286 279 273 269 264 260 260 259 253 248 249 249 248 249 248 241 234 232 234 235 232 229 227 228 230 231 232
266 268 272 275 277 280 285 289 291 292 294 295 296 297 298 300 301 300 300 300 299 297 296 294 293 292 291 290 288 288 287 286 285 284 284 283 283 282 280 278 276 276 276 278 279 279 280 281 282 282 284 285 286 288 290 292 293 294 290 282 275 270 266 261 260 259 254 248 247 248 246 245 249 247 237 232 233 235 234 231 229 229 229 230 232
265 269 272 275 277 281 286 288 290 291 293 295 296 297 299 301 301 301 301 301 300 298 297 295 294 293 292 290 289 288 288 287 286 285 284 284 283 283 282 280 278 276 275 275 276 277 278 279 280 281 282 284 285 286 287 288 289 291 291 287 278 271 266 262 260 259 257 251 246 246 245 245 252 253 240 232 232 233 234 233 230 229 229 229 231
268 271 273 275 278 282 285 287 289 291 293 295 296 298 300 301 301 301 301 300 299 297 296 295 294 292 291 290 289 289 288 288 287 287 286 285 284 284 283 282 281 279 277 275 274 275 276 277 278 279 280 281 283 284 284 284 286 287 289 289 283 274 266 261 260 259 258 254 247 246 247 248 253 254 242 233 233 234 234 233 231 230 230 228 230
270 271 272 275 279 282 284 286 289 291 293 295 297 299 300 300 300 301 300 299 298 297 295 294 293 292 291 290 290 289 289 289 288 288 287 287 286 285 284 283 282 281 280 278 276 275 275 275 276 277 278 279 280 281 282 281 282 284 286 287 286 280 270 262 260 260 259 256 250 247 247 249 252 254 246 238 236 236 236 234 231 230 231 230 231
270 270 273 276 279 282 284 287 289 291 293 295 297 298 299 300 300 300 300 299 298 296 295 294 292 291 291 290 290 289 289 289 288 288 287 287 287 286 286 285 284 283 282 281 279 277 276 275 275 275 276 277 278 279 279 279 279 281 283 284 285 285 278 268 262 260 259 258 253 248 247 248 249 251 250 245 242 240 239 236 232 228 228 229 231
269 271 274 277 280 282 285 287 289 291 293 295 296 297 298 299 299 299 299 297 296 295 294 293 293 292 291 290 290 289 289 289 288 288 287 287 286 286 285 285 284 283 282 281 280 279 278 276 275 275 275 276 276 276 277 277 277 278 280 281 282 284 284 277 267 261 258 256 253 249 248 249 249 249 250 248 246 244 241 238 233 228 227 228 228
270 273 276 278 281 284 286 288 290 291 293 295 296 297 298 299 299 298 297 296 295 295 294 294 293 293 292 292 291 291 290 289 288 288 288 287 286 286 285 285 284 283 283 282 281 279 278 277 275 274 274 275 275 275 275 275 275 275 277 279 280 281 283 283 274 264 258 254 251 248 248 250 250 248 249 250 248 245 242 240 235 229 227 228 229
272 275 277 280 282 285 286 288 290 292 294 295 297 298 298 298 298 297 297 296 296 296 296 296 295 295 295 294 294 293 292 291 289 288 287 287 286 286 285 284 284 283 283 282 281 280 279 278 276 275 274 273 273 273 274 274 274 274 274 276 278 278 280 283 279 269 261 256 253 249 250 253 250 244 246 250 248 243 242 240 235 230 227 227 230
274 277 279 281 283 285 287 289 291 293 295 296 297 297 297 297 297 297 297 298 298 298 298 298 298 298 297 297 296 295 294 293 292 290 289 287 286 285 285 284 283 283 282 282 281 281 280 279 278 276 274 273 272 272 272 272 273 273 272 273 275 276 277 279 280 274 264 259 256 253 254 257 253 242 240 246 246 243 241 238 233 230 229 229 229
277 279 281 282 285 287 289 291 293 294 296 296 297 297 296 297 298 299 300 300 300 300 300 299 299 299 298 298 297 296 295 294 293 292 291 289 288 286 285 284 283 282 281 281 281 280 280 279 278 277 275 273 271 270 270 270 271 271 271 271 272 274 275 275 278 277 268 260 256 253 251 254 257 247 238 239 243 243 242 237 232 231 231 232 231
278 280 282 285 287 289 291 293 294 295 296 296 296 297 297 299 300 301 302 302 302 302 301 301 301 300 299 299 298 297 296 295 294 293 292 291 290 288 286 284 283 281 280 279 279 278 278 278 278 277 275 273 271 270 268 268 268 268 269 269 269 272 273 273 275 277 272 263 256 252 248 250 256 256 246 242 243 244 243 237 232 231 231 232 232
280 282 285 287 289 291 292 294 295 296 296 297 297 298 300 301 302 303 303 303 303 303 302 302 302 302 301 301 300 300 299 298 297 296 295 294 292 290 289 287 284 282 280 278 277 276 276 276 276 276 275 274 272 270 268 266 265 266 266 266 266 269 271 271 273 275 274 267 259 254 251 250 254 259 258 252 248 246 244 237 231 230 230 229 230
282 285 287 288 290 291 293 294 295 296 297 298 299 301 302 303 303 304 304 304 304 304 304 304 304 304 304 304 303 303 302 301 301 299 298 297 295 294 292 290 287 285 282 279 277 275 274 273 273 273 273 273 272 270 268 266 264 263 263 264 264 266 268 269 270 272 274 270 263 257 255 253 254 256 259 260 254 248 246 240 233 230 228 227 228
284 286 288 289 291 293 294 295 296 297 298 299 301 302 303 304 304 304 305 305 305 306 306 306 307 307 306 306 306 306 305 304 304 303 302 300 299 297 295 293 290 288 285 282 278 275 272 271 270 269 270 270 270 269 268 266 263 261 260 261 262 263 265 266 266 268 271 271 265 260 258 256 255 254 254 258 259 253 248 241 233 230 228 226 227
286 288 289 291 292 294 295 296 297 298 300 301 302 303 304 304 305 305 306 306 307 308 308 309 308 308 308 307 307 306 306 306 305 305 304 303 302 301 299 296 294 291 287 284 281 277 273 270 267 266 266 266 266 266 266 265 263 260 258 258 259 261 262 264 264 264 267 269 266 262 259 255 252 251 249 252 258 258 252 242 234 230 228 226 226
288 289 291 292 293 294 295 296 298 300 301 303 303 304 305 305 306 307 308 309 309 309 309 309 308 308 308 308 308 307 307 306 306 306 306 305 305 304 303 300 298 294 291 287 283 279 274 270 267 264 263 263 262 263 263 263 262 259 257 255 255 258 260 262 262 262 263 267 266 263 259 252 248 249 248 249 254 257 253 247 239 232 229 227 226
289 290 291 291 292 293 295 298 300 301 302 303 304 305 306 307 309 310 310 310 310 310 309 309 309 309 309 309 309 308 307 307 307 307 307 308 308 307 306 304 301 298 294 289 285 281 276 271 267 263 260 259 259 259 259 259 259 258 255 253 252 254 256 258 261 262 261 263 265 263 259 252 248 250 248 247 251 253 251 248 241 234 229 227 227
289 290 290 291 293 295 297 299 301 302 303 304 305 307 309 310 311 311 311 310 310 310 310 310 310 311 311 311 310 310 309 309 310 310 311 311 311 311 310 308 305 301 296 291 286 282 277 272 268 263 259 256 255 256 256 255 256 255 254 251 248 250 253 255 257 260 260 260 262 264 261 256 251 251 250 247 248 250 249 246 242 236 231 228 228
288 289 290 292 295 297 299 300 302 303 304 306 308 309 310 311 311 311 311 311 311 311 311 312 313 313 313 313 313 313 313 313 313 314 315 315 315 315 314 312 308 304 298 292 287 282 277 273 269 264 259 255 252 252 252 252 252 251 251 249 246 246 249 251 253 256 258 259 261 263 264 261 255 252 251 248 248 249 249 246 243 238 233 230 229
288 290 292 294 296 298 299 300 302 304 305 307 309 310 311 311 312 312 311 312 312 313 314 315 316 316 316 316 316 316 316 317 317 318 319 320 320 320 319 316 312 307 303 297 291 285 279 274 269 265 260 255 251 249 248 248 248 247 247 246 244 243 246 248 250 252 255 258 259 261 263 262 257 252 250 249 248 250 250 248 243 238 234 231 230
290 292 293 295 297 298 299 301 303 305 307 308 310 310 311 312 312 312 312 313 315 316 318 319 319 319 320 320 320 320 320 321 322 323 324 325 326 326 324 321 317 313 309 303 296 290 284 277 272 266 261 256 251 247 245 245 244 244 243 243 241 241 242 245 246 248 251 256 257 257 259 260 256 252 249 247 246 247 249 247 242 236 232 230 231
291 293 294 295 297 298 300 302 304 306 307 309 310 311 312 312 312 313 314 317 319 320 321 322 322 323 323 322 322 323 324 325 326 328 329 331 332 332 329 325 322 319 315 310 302 294 287 281 275 269 263 258 252 247 243 242 242 240 240 239 239 239 240 242 243 244 246 249 252 253 254 256 254 249 245 242 241 242 243 244 242 236 232 231 231
291 292 294 295 297 298 300 302 304 306 308 310 311 312 312 312 313 315 318 320 322 323 324 325 325 325 325 325 326 327 328 330 331 332 334 336 337 336 332 329 327 324 320 316 310 301 291 283 278 272 266 260 254 248 242 240 239 238 237 236 236 237 239 240 241 241 241 243 247 249 251 254 253 249 244 238 235 235 236 239 242 237 231 229 229
290 292 293 294 296 298 300 302 305 307 309 311 312 312 312 313 316 319 321 323 325 326 327 327 327 327 328 328 329 330 332 334 336 336 338 340 341 339 335 332 330 328 324 320 316 310 300 289 280 274 268 262 256 250 243 238 237 237 235 235 234 235 238 240 239 239 241 243 247 249 250 253 253 251 248 240 233 230 230 234 240 235 227 225 226
289 291 292 293 295 298 301 304 306 309 310 311 312 312 313 315 318 321 323 325 327 329 329 330 330 330 330 330 330 332 335 337 339 340 341 343 344 341 338 336 334 331 328 325 322 318 310 300 288 278 271 264 258 252 245 239 236 236 235 234 234 234 237 239 239 239 241 243 246 248 249 252 253 253 251 245 235 230 227 228 234 233 227 225 228
288 289 290 293 297 300 303 305 307 309 310 311 311 312 314 317 319 322 325 327 329 331 332 334 334 333 332 332 332 334 337 339 341 342 343 345 346 344 342 340 338 334 331 329 326 322 315 306 297 286 276 268 260 254 247 240 236 235 234 235 235 235 237 239 239 238 239 241 243 246 248 250 252 253 252 248 240 234 229 226 229 231 228 226 229
286 288 291 294 298 301 304 306 307 308 309 310 311 312 315 317 320 324 326 329 331 333 335 336 337 336 335 335 335 337 339 340 342 343 345 347 349 348 345 344 342 337 333 332 330 326 320 312 303 295 285 275 266 257 250 243 238 236 235 235 235 235 237 239 238 237 238 238 240 242 243 245 248 249 251 250 246 241 236 230 228 230 231 228 229
285 289 293 296 299 302 304 305 306 307 308 309 310 312 315 319 322 325 327 329 332 335 337 338 339 339 339 339 339 339 340 341 344 346 348 350 351 351 349 348 346 342 338 337 334 332 328 319 308 299 291 283 275 265 253 245 240 239 237 236 235 235 236 238 237 236 236 236 237 238 239 242 245 245 248 250 248 246 247 241 233 233 234 232 229
286 291 294 297 300 301 303 304 304 306 307 307 309 313 317 320 323 325 328 330 333 336 337 340 341 343 343 343 342 342 342 344 347 349 350 352 353 354 352 351 350 347 344 342 340 337 334 327 316 305 295 287 282 274 262 249 243 241 239 238 235 233 234 236 236 235 233 232 233 237 239 241 244 244 245 248 249 249 251 249 240 235 235 233 229
289 293 295 297 299 300 302 303 303 305 306 308 310 315 319 322 325 327 330 332 335 336 338 341 344 346 346 346 345 345 346 347 349 351 352 353 355 356 355 354 353 351 349 347 345 342 338 334 325 314 303 293 286 281 272 259 248 243 241 240 236 232 231 232 233 233 231 229 230 234 237 239 242 244 244 245 247 248 248 244 236 233 232 230 228
291 293 295 297 298 300 301 303 304 307 308 310 313 317 321 323 326 329 332 335 336 337 339 343 346 347 348 348 348 347 348 349 350 352 353 354 356 358 358 357 357 355 353 352 350 346 341 338 333 325 314 303 293 287 279 268 256 248 244 242 238 233 229 229 230 230 230 227 227 231 234 237 240 243 243 243 243 246 248 242 232 229 231 230 231
292 294 295 296 298 300 302 304 306 308 309 312 316 319 321 324 329 332 334 336 338 339 342 344 347 348 348 349 349 349 349 350 351 353 354 355 357 360 0 360 360 360 357 355 354 351 345 341 338 333 325 315 303 294 285 275 265 256 249 245 243 237 231 227 226 228 228 228 227 228 230 233 237 240 242 240 238 241 246 243 232 227 230 232 233
292 294 295 296 298 301 304 306 307 307 311 315 318 319 322 327 330 332 334 337 339 342 344 345 347 348 348 349 350 350 350 351 352 353 355 357 358 1 2 3 3 2 1 359 358 356 352 346 343 339 334 327 316 304 292 281 269 260 253 247 245 242 237 231 227 225 226 228 229 229 228 230 234 239 242 242 238 238 241 240 233 230 232 234 234
291 292 295 298 301 304 306 306 306 308 314 319 320 322 326 329 331 332 334 338 340 343 344 346 347 347 348 349 350 351 352 352 352 353 355 358 359 2 4 5 5 4 3 2 2 1 359 354 349 346 342 336 328 316 301 287 275 263 254 247 242 240 239 238 235 231 228 227 228 229 229 229 231 235 239 241 239 238 238 238 237 237 238 238 238
291 294 298 302 304 306 307 307 307 311 317 323 325 328 329 330 331 333 336 338 340 343 344 346 346 347 349 350 350 352 353 353 353 354 356 358 0 2 4 6 6 7 6 6 5 5 4 1 357 353 349 345 338 328 314 298 282 268 256 248 241 235 231 234 239 240 237 233 230 230 229 230 232 234 236 236 237 238 239 240 241 242 242 242 242
293 298 302 304 306 307 308 309 311 315 321 327 331 332 332 331 332 334 337 339 340 342 344 345 346 347 349 349 350 352 353 353 354 355 357 358 0 2 4 6 8 9 9 9 8 8 8 7 4 360 356 352 347 339 328 313 295 277 260 249 243 236 229 226 230 239 243 242 239 235 232 230 231 233 235 236 237 240 242 242 243 243 242 240 241
297 302 305 306 308 311 312 312 314 319 324 329 332 334 333 333 333 335 337 338 339 340 343 345 346 347 348 350 350 352 353 353 354 356 357 358 360 2 4 6 8 10 11 11 11 10 10 10 9 6 3 359 355 350 341 329 312 292 271 255 245 239 233 229 228 231 238 243 243 242 240 237 235 234 234 234 234 236 239 240 240 242 241 238 238
299 304 308 311 313 315 316 315 317 322 326 329 332 333 334 333 334 335 336 337 338 340 342 344 345 347 348 350 351 352 353 353 354 355 356 358 360 2 4 6 8 10 11 12 12 12 12 12 12 11 9 6 2 358 351 342 329 312 291 270 255 245 238 234 231 231 235 240 242 242 241 242 241 241 239 237 235 233 233 234 235 238 240 239 239
303 307 312 313 315 317 318 318 319 323 326 329 331 333 334 334 335 335 336 337 338 339 341 343 344 346 348 349 351 352 353 353 354 355 356 357 359 2 4 6 7 9 11 13 14 14 14 14 14 13 13 11 8 4 360 353 343 330 313 293 273 259 250 243 237 234 235 239 244 245 243 242 243 243 244 244 242 239 237 236 236 237 238 239 240
307 310 312 314 316 319 320 321 323 327 329 330 332 334 335 336 337 337 337 338 338 339 340 342 344 346 348 349 350 351 353 353 354 354 355 357 358 0 3 5 7 8 10 12 14 15 15 15 15 15 15 14 12 9 6 2 356 346 332 316 298 280 266 256 248 242 240 241 245 248 249 248 246 244 243 243 243 244 243 242 241 240 240 241 243
310 311 312 315 318 320 322 325 328 331 332 333 334 336 337 339 340 340 340 340 339 339 340 342 344 346 347 348 349 351 352 353 353 354 355 356 357 359 1 4 6 8 9 11 13 15 16 16 16 16 16 16 15 13 10 6 3 357 348 336 321 305 288 273 261 254 249 247 248 249 251 252 252 251 249 245 243 242 243 243 244 244 243 244 246
312 313 315 318 320 321 324 328 332 333 334 335 336 338 340 342 343 343 342 342 341 340 341 343 345 346 347 348 349 350 352 353 353 353 354 355 355 357 360 2 4 6 8 10 12 14 16 17 17 17 17 16 16 16 14 11 8 4 359 351 341 328 312 296 280 268 261 257 255 254 254 254 255 257 258 257 254 249 246 245 244 244 244 244 245
314 316 319 321 322 322 326 331 334 334 335 336 338 339 342 344 344 344 344 343 343 342 342 343 345 346 346 347 348 349 351 352 352 353 354 355 355 355 358 1 3 4 6 8 10 12 14 16 17 18 17 17 16 16 16 14 12 9 5 0 355 346 335 320 303 287 276 268 263 260 259 259 258 259 261 263 262 261 258 254 251 249 247 246 246
315 318 320 322 322 322 326 331 333 333 334 335 337 339 341 343 344 345 344 344 344 344 343 344 345 345 346 346 348 348 350 351 352 352 353 354 354 354 356 359 1 2 3 6 9 10 12 14 16 18 18 18 17 16 16 15 14 12 9 5 2 357 351 342 330 312 295 281 272 267 266 265 263 262 263 264 264 264 263 262 261 258 256 254 252
312 315 318 319 319 321 324 328 330 331 332 333 335 336 338 341 343 343 343 344 344 345 344 344 345 345 345 345 346 347 349 350 351 352 352 353 353 353 355 357 359 1 1 3 6 8 9 11 13 16 17 18 18 17 16 15 14 14 12 9 6 2 359 354 347 337 323 305 289 278 272 269 267 266 265 264 264 264 264 264 264 262 261 259 258
304 308 312 315 316 318 321 324 326 327 328 330 332 334 336 338 340 341 341 342 343 345 345 345 344 343 344 344 345 346 347 349 349 350 351 351 352 353 354 355 357 359 360 1 3 5 7 8 10 12 14 16 18 18 17 16 15 14 13 11 9 6 3 360 354 348 341 331 318 302 287 277 272 269 267 266 265 264 264 264 263 263 261 260 259
298 302 306 309 312 314 317 319 322 323 325 327 329 331 333 335 336 337 338 339 341 343 344 344 343 343 342 342 343 345 346 347 347 348 349 350 351 352 352 353 354 356 358 359 0 2 4 5 7 8 10 12 14 16 17 17 16 15 14 12 11 8 6 3 360 355 350 344 337 327 315 300 287 277 272 269 267 265 265 264 263 262 261 260 259
293 296 300 304 307 310 312 315 317 319 321 323 325 327 329 331 333 334 335 336 338 340 342 343 343 342 341 340 341 343 344 344 345 346 347 349 350 351 352 352 353 354 355 357 358 359 0 2 4 6 7 8 10 12 14 15 16 15 14 13 11 9 8 5 3 359 356 351 346 339 332 324 313 300 288 279 273 268 266 265 265 264 263 261 260
288 292 296 299 302 304 307 309 312 315 317 319 321 324 326 328 329 331 332 333 335 337 338 340 340 341 340 339 339 340 342 342 343 344 346 347 349 350 351 351 351 352 353 354 355 355 356 358 0 2 4 5 6 7 9 11 13 14 14 13 11 10 8 6 4 2 359 356 351 344 337 331 326 319 309 298 289 280 274 269 267 266 265 264 263
284 288 292 295 297 300 302 304 307 310 313 316 318 320 323 325 326 328 329 330 332 334 335 336 337 338 339 338 337 337 338 339 341 342 343 345 347 348 350 350 350 350 350 351 351 351 352 354 356 358 360 2 3 4 5 6 8 10 11 12 11 10 8 7 5 3 0 358 354 349 341 334 328 323 319 313 305 297 288 281 275 271 269 267 267
Height
5784 5784 5783 5783 5782 5781 5780 5779 5777 5776 5775 5774 5773 5771 5770 5769 5768 5766 5764 5763 5762 5761 5759 5758 5756 5755 5754 5752 5751 5749 5748 5746 5745 5744 5743 5742 5741 5741 5740 5739 5738 5737 5735 5734 5732 5731 5731 5730 5729 5728 5726 5725 5725 5723 5722 5720 5719 5718 5717 5716 5715 5714 5715 5714 5714 5717 5720 5721 5721 5721 5721 5722 5724 5725 5726 5726 5728 5731 5735 5737 5738 5739 5741 5743 5746
5781 5780 5779 5779 5778 5777 5776 5775 5773 5772 5770 5769 5768 5767 5766 5765 5763 5761 5760 5758 5757 5755 5754 5753 5751 5750 5749 5747 5746 5744 5743 5741 5740 5739 5738 5737 5736 5735 5735 5734 5733 5732 5731 5729 5728 5726 5726 5725 5724 5723 5721 5721 5720 5718 5717 5716 5714 5713 5712 5711 5710 5710 5709 5709 5709 5710 5713 5715 5715 5715 5716 5716 5717 5720 5721 5722 5723 5726 5729 5732 5734 5735 5736 5739 5741
5777 5776 5776 5775 5774 5773 5772 5771 5769 5768 5766 5765 5764 5763 5762 5760 5758 5757 5755 5754 5752 5751 5749 5747 5746 5744 5743 5742 5740 5739 5737 5736 5735 5734 5733 5732 5731 5730 5729 5728 5728 5727 5726 5724 5723 5722 5720 5719 5718 5717 5716 5715 5715 5713 5712 5711 5710 5709 5708 5707 5705 5705 5704 5703 5703 5704 5706 5709 5709 5710 5711 5711 5712 5714 5715 5717 5718 5720 5722 5726 5729 5731 5732 5734 5736
5773 5772 5772 5771 5770 5769 5768 5766 5765 5764 5762 5761 5760 5758 5757 5755 5753 5752 5750 5749 5747 5746 5744 5743 5741 5739 5738 5736 5735 5734 5732 5731 5730 5729 5728 5727 5726 5725 5724 5723 5722 5721 5720 5719 5718 5717 5715 5714 5713 5712 5711 5710 5709 5708 5707 5706 5704 5703 5703 5702 5700 5700 5699 5698 5698 5698 5700 5702 5704 5704 5704 5705 5707 5707 5709 5711 5713 5714 5716 5718 5722 5726 5728 5730 5731
5769 5768 5768 5767 5766 5765 5763 5762 5761 5760 5758 5757 5755 5754 5752 5750 5749 5747 5745 5744 5742 5741 5739 5737 5736 5734 5733 5731 5730 5728 5727 5725 5724 5723 5722 5720 5719 5719 5718 5717 5715 5714 5714 5713 5712 5711 5710 5709 5707 5706 5705 5704 5703 5703 5701 5700 5699 5698 5697 5697 5695 5694 5694 5693 5693 5693 5694 5696 5698 5699 5699 5700 5701 5702 5704 5706 5708 5709 5710 5711 5716 5721 5723 5725 5727
5765 5764 5763 5762 5761 5760 5759 5758 5757 5755 5754 5752 5751 5749 5747 5746 5744 5742 5741 5739 5737 5735 5733 5732 5731 5729 5728 5726 5724 5723 5721 5720 5718 5717 5716 5714 5713 5712 5711 5710 5709 5708 5707 5706 5705 5705 5704 5703 5702 5700 5699 5698 5697 5697 5695 5694 5694 5693 5692 5691 5690 5689 5689 5688 5687 5687 5688 5690 5692 5693 5694 5694 5695 5698 5700 5701 5702 5704 5704 5706 5711 5715 5717 5719 5721
5760 5760 5759 5758 5757 5756 5755 5753 5752 5751 5749 5748 5746 5745 5743 5741 5739 5738 5736 5734 5732 5730 5728 5726 5725 5723 5722 5721 5719 5717 5716 5714 5713 5711 5710 5708 5707 5706 5705 5703 5702 5701 5700 5699 5698 5698 5697 5697 5696 5694 5693 5692 5691 5690 5689 5689 5688 5687 5687 5686 5685 5684 5683 5683 5682 5682 5683 5684 5685 5687 5689 5689 5690 5692 5694 5695 5697 5699 5699 5700 5704 5709 5711 5713 5714
5756 5756 5755 5754 5753 5752 5750 5749 5748 5746 5745 5743 5741 5740 5738 5736 5734 5733 5731 5730 5728 5725 5723 5721 5719 5718 5716 5715 5713 5712 5710 5709 5707 5705 5704 5702 5701 5699 5698 5697 5695 5694 5693 5692 5691 5691 5690 5690 5689 5688 5687 5686 5685 5684 5683 5682 5682 5682 5681 5680 5679 5679 5678 5677 5677 5676 5677 5678 5679 5681 5682 5683 5685 5686 5687 5688 5691 5693 5694 5695 5698 5703 5706 5708 5708
5752 5751 5750 5749 5749 5748 5746 5745 5743 5742 5740 5738 5737 5735 5733 5731 5730 5728 5726 5725 5723 5721 5719 5717 5715 5713 5711 5709 5707 5705 5704 5702 5701 5699 5698 5696 5694 5693 5691 5690 5688 5687 5686 5684 5683 5683 5682 5682 5681 5681 5680 5679 5678 5677 5676 5676 5675 5676 5676 5674 5673 5673 5673 5672 5671 5670 5671 5672 5673 5674 5676 5677 5678 5680 5681 5682 5684 5687 5688 5690 5693 5696 5699 5701 5703
5748 5747 5746 5745 5744 5743 5742 5741 5739 5737 5736 5734 5732 5731 5729 5727 5725 5723 5721 5719 5718 5716 5714 5712 5710 5708 5705 5703 5701 5699 5697 5695 5693 5691 5690 5689 5687 5686 5684 5683 5681 5680 5679 5677 5676 5675 5674 5673 5673 5673 5672 5672 5671 5670 5670 5669 5668 5669 5669 5669 5667 5667 5667 5666 5666 5665 5665 5665 5666 5667 5669 5670 5671 5673 5676 5677 5678 5680 5681 5684 5687 5689 5691 5694 5697
5744 5743 5742 5741 5740 5739 5737 5736 5734 5733 5731 5730 5728 5726 5724 5722 5721 5718 5716 5715 5713 5711 5709 5707 5704 5702 5699 5697 5695 5692 5690 5687 5685 5683 5681 5680 5678 5677 5676 5674 5673 5672 5671 5669 5668 5667 5666 5665 5664 5664 5664 5664 5664 5663 5663 5662 5662 5661 5662 5662 5661 5661 5661 5660 5660 5660 5659 5659 5660 5660 5661 5663 5665 5666 5669 5671 5672 5673 5675 5678 5680 5682 5684 5687 5690
5740 5739 5738 5737 5736 5734 5733 5731 5730 5728 5727 5725 5723 5722 5720 5718 5716 5714 5712 5710 5708 5705 5703 5701 5698 5696 5693 5690 5688 5685 5683 5680 5677 5675 5673 5670 5668 5667 5666 5664 5663 5662 5662 5661 5660 5659 5658 5656 5655 5655 5655 5655 5656 5656 5656 5655 5655 5655 5655 5656 5655 5654 5654 5654 5655 5654 5654 5653 5654 5654 5655 5657 5658 5659 5661 5664 5665 5667 5668 5670 5673 5675 5678 5680 5684
5736 5735 5734 5732 5731 5730 5729 5727 5726 5724 5723 5721 5719 5717 5716 5714 5711 5709 5707 5705 5702 5700 5697 5694 5692 5689 5686 5683 5681 5678 5675 5673 5670 5667 5664 5662 5659 5657 5655 5653 5652 5652 5651 5650 5650 5649 5648 5648 5647 5646 5646 5646 5646 5647 5648 5648 5648 5647 5648 5648 5649 5648 5648 5648 5648 5649 5648 5648 5648 5649 5650 5651 5652 5654 5655 5657 5658 5659 5660 5663 5666 5668 5670 5673 5678
5731 5730 5729 5728 5727 5726 5725 5723 5722 5720 5718 5717 5715 5713 5711 5709 5707 5704 5702 5700 5697 5694 5691 5688 5686 5683 5680 5677 5674 5671 5669 5666 5663 5659 5656 5653 5650 5647 5645 5642 5641 5639 5639 5639 5638 5638 5638 5637 5637 5636 5636 5636 5637 5638 5639 5640 5640 5640 5640 5641 5642 5642 5642 5642 5642 5642 5642 5643 5643 5644 5645 5645 5646 5648 5648 5649 5651 5653 5654 5656 5659 5661 5664 5668 5671
5727 5726 5725 5724 5723 5722 5720 5719 5718 5716 5714 5713 5711 5709 5707 5704 5702 5700 5697 5695 5692 5689 5686 5683 5680 5677 5674 5672 5669 5666 5662 5659 5656 5652 5649 5645 5642 5639 5636 5633 5630 5627 5626 5625 5625 5626 5626 5626 5626 5626 5626 5626 5627 5628 5629 5631 5632 5633 5633 5633 5634 5635 5635 5636 5636 5636 5637 5637 5637 5638 5638 5639 5639 5641 5642 5643 5644 5646 5648 5649 5653 5655 5659 5662 5664
5723 5722 5721 5720 5719 5718 5716 5715 5714 5712 5710 5708 5707 5704 5702 5699 5697 5695 5693 5690 5687 5684 5682 5679 5676 5673 5670 5667 5664 5660 5657 5653 5650 5646 5642 5638 5634 5630 5627 5623 5620 5617 5614 5612 5612 5612 5613 5614 5615 5615 5615 5616 5617 5618 5619 5621 5623 5625 5626 5626 5626 5627 5628 5629 5629 5630 5631 5631 5631 5631 5632 5633 5633 5634 5636 5638 5639 5639 5640 5642 5645 5648 5651 5654 5656
5719 5718 5717 5716 5715 5714 5712 5711 5709 5708 5706 5704 5702 5700 5697 5695 5693 5690 5688 5685 5682 5680 5677 5674 5671 5668 5665 5661 5658 5655 5651 5647 5644 5640 5636 5632 5627 5623 5619 5615 5611 5607 5604 5601 5599 5598 5598 5600 5601 5603 5604 5604 5606 5607 5609 5611 5613 5616 5618 5619 5619 5620 5621 5621 5622 5623 5625 5626 5626 5626 5626 5627 5628 5628 5630 5632 5633 5633 5633 5635 5638 5641 5644 5647 5650
5716 5715 5714 5712 5711 5710 5708 5707 5705 5704 5702 5700 5698 5696 5693 5691 5688 5686 5683 5680 5678 5676 5673 5670 5667 5663 5660 5656 5652 5649 5645 5641 5637 5633 5629 5625 5620 5616 5611 5607 5602 5598 5594 5590 5587 5585 5584 5585 5587 5589 5591 5593 5594 5596 5598 5600 5603 5606 5609 5611 5612 5613 5613 5614 5615 5617 5618 5619 5620 5620 5620 5621 5622 5622 5623 5625 5627 5627 5628 5630 5632 5634 5637 5642 5645
5712 5711 5710 5708 5707 5706 5705 5703 5701 5700 5698 5696 5694 5692 5689 5687 5684 5682 5679 5676 5674 5671 5668 5665 5662 5658 5654 5650 5646 5642 5638 5634 5630 5626 5622 5617 5613 5608 5603 5598 5592 5587 5583 5579 5576 5573 5572 5571 5573 5575 5578 5580 5583 5585 5587 5590 5593 5596 5599 5602 5605 5605 5606 5607 5609 5610 5610 5612 5613 5613 5613 5614 5615 5616 5617 5619 5620 5621 5623 5625 5626 5628 5632 5636 5639
5709 5707 5706 5704 5703 5702 5701 5699 5698 5696 5694 5692 5690 5688 5686 5683 5681 5678 5675 5672 5670 5667 5664 5660 5657 5653 5649 5645 5641 5637 5632 5628 5623 5619 5615 5610 5605 5599 5594 5589 5583 5577 5572 5568 5565 5563 5560 5559 5560 5561 5564 5567 5571 5574 5577 5580 5583 5586 5589 5593 5596 5598 5599 5601 5603 5603 5603 5604 5606 5607 5607 5607 5608 5609 5611 5612 5614 5616 5618 5619 5620 5623 5626 5629 5631
5705 5704 5702 5701 5700 5699 5697 5696 5695 5693 5691 5689 5687 5685 5682 5680 5678 5675 5672 5669 5666 5663 5659 5656 5652 5648 5644 5640 5635 5631 5627 5622 5618 5613 5608 5603 5597 5591 5585 5579 5573 5567 5563 5558 5555 5552 5551 5549 5549 5549 5551 5554 5558 5562 5566 5569 5573 5576 5580 5583 5587 5590 5592 5594 5595 5596 5597 5597 5599 5600 5601 5601 5602 5603 5604 5606 5608 5610 5612 5613 5614 5617 5619 5622 5625
5701 5700 5698 5697 5696 5695 5694 5693 5691 5690 5688 5686 5684 5682 5680 5677 5675 5672 5669 5666 5662 5659 5655 5651 5647 5644 5639 5635 5631 5626 5622 5618 5613 5608 5603 5597 5590 5583 5576 5570 5564 5558 5554 5550 5546 5543 5541 5540 5539 5539 5540 5543 5547 5551 5555 5559 5563 5567 5570 5574 5578 5581 5584 5586 5588 5589 5591 5592 5592 5593 5595 5595 5596 5597 5599 5600 5602 5604 5605 5607 5608 5610 5612 5615 5619
5697 5696 5695 5694 5693 5692 5691 5689 5688 5687 5685 5683 5681 5679 5677 5674 5672 5669 5666 5663 5659 5655 5651 5648 5644 5640 5636 5631 5627 5622 5618 5613 5608 5603 5598 5591 5584 5577 5569 5562 5556 5550 5546 5542 5539 5536 5534 5532 5531 5531 5531 5533 5536 5540 5545 5549 5553 5557 5561 5565 5569 5572 5575 5578 5580 5582 5585 5586 5586 5586 5588 5589 5590 5592 5593 5594 5596 5598 5599 5601 5602 5604 5606 5610 5613
5694 5693 5692 5691 5690 5689 5688 5687 5685 5684 5682 5680 5678 5676 5674 5671 5669 5666 5663 5660 5656 5652 5648 5645 5641 5637 5633 5628 5624 5619 5614 5609 5604 5598 5593 5586 5579 5572 5564 5557 5551 5545 5539 5534 5531 5529 5527 5525 5524 5524 5524 5525 5527 5531 5536 5540 5544 5548 5553 5556 5560 5564 5566 5569 5572 5575 5577 5578 5578 5580 5582 5583 5584 5586 5586 5588 5589 5591 5593 5595 5596 5598 5601 5604 5608
5691 5690 5689 5688 5687 5686 5685 5684 5682 5681 5680 5677 5675 5673 5671 5668 5666 5663 5661 5657 5653 5649 5645 5642 5638 5634 5630 5626 5621 5616 5611 5606 5601 5595 5589 5582 5576 5568 5561 5553 5547 5540 5535 5529 5525 5522 5520 5519 5518 5517 5518 5518 5520 5523 5527 5531 5536 5540 5544 5548 5552 5555 5558 5561 5564 5567 5569 5571 5573 5575 5576 5577 5579 5580 5580 5581 5583 5584 5587 5589 5590 5592 5594 5598 5602
5689 5688 5686 5685 5684 5684 5682 5681 5679 5678 5677 5675 5673 5671 5668 5666 5663 5661 5658 5654 5651 5647 5643 5639 5635 5631 5627 5623 5618 5614 5609 5604 5598 5592 5586 5580 5573 5566 5558 5551 5543 5536 5531 5526 5521 5517 5515 5513 5512 5512 5512 5513 5514 5516 5519 5523 5528 5532 5536 5540 5544 5547 5550 5553 5556 5560 5562 5565 5567 5569 5570 5572 5573 5574 5575 5576 5577 5578 5581 5583 5585 5587 5589 5593 5596
5686 5685 5684 5683 5682 5681 5680 5678 5676 5675 5674 5672 5670 5668 5666 5663 5661 5658 5655 5652 5649 5645 5641 5637 5633 5629 5625 5621 5616 5611 5607 5602 5597 5591 5585 5578 5571 5563 5556 5549 5541 5534 5529 5524 5519 5515 5512 5509 5507 5507 5507 5507 5509 5511 5513 5517 5521 5525 5529 5532 5536 5539 5542 5545 5549 5552 5555 5558 5561 5563 5565 5567 5567 5568 5570 5571 5572 5573 5575 5578 5580 5582 5584 5587 5590
5684 5683 5682 5681 5679 5678 5677 5675 5674 5672 5671 5669 5667 5666 5664 5661 5658 5656 5653 5650 5647 5643 5639 5635 5631 5627 5623 5618 5613 5609 5604 5599 5594 5589 5582 5576 5569 5561 5554 5547 5540 5534 5528 5522 5517 5513 5509 5506 5504 5503 5502 5503 5504 5506 5508 5511 5514 5518 5522 5525 5529 5532 5535 5538 5542 5546 5549 5552 5555 5557 5559 5560 5561 5562 5565 5566 5567 5568 5570 5572 5575 5577 5579 5581 5584
5681 5681 5680 5678 5677 5676 5675 5673 5671 5670 5668 5667 5665 5663 5661 5659 5656 5653 5650 5648 5644 5641 5636 5632 5628 5624 5620 5615 5611 5606 5601 5596 5591 5585 5579 5573 5566 5559 5552 5545 5538 5532 5526 5521 5516 5511 5508 5505 5502 5500 5499 5499 5500 5502 5503 5506 5509 5512 5515 5519 5522 5526 5529 5532 5536 5539 5543 5547 5549 5551 5552 5553 5555 5557 5559 5561 5562 5564 5565 5567 5569 5572 5573 5575 5577
5680 5678 5677 5676 5675 5673 5672 5670 5669 5668 5666 5664 5663 5661 5659 5656 5654 5651 5648 5645 5642 5638 5635 5630 5626 5621 5617 5612 5608 5603 5598 5593 5588 5583 5577 5571 5565 5557 5550 5542 5536 5530 5524 5519 5514 5510 5506 5503 5501 5499 5498 5497 5497 5498 5500 5502 5504 5507 5510 5513 5516 5520 5523 5526 5529 5533 5537 5541 5543 5545 5547 5548 5550 5552 5555 5556 5558 5560 5561 5562 5564 5566 5568 5569 5571
5678 5676 5675 5674 5672 5671 5670 5668 5666 5665 5664 5662 5660 5659 5656 5654 5651 5648 5645 5642 5639 5636 5632 5628 5624 5619 5614 5610 5605 5600 5596 5591 5586 5581 5576 5570 5564 5557 5549 5542 5535 5529 5523 5518 5514 5509 5505 5502 5499 5497 5496 5495 5495 5496 5497 5499 5501 5503 5505 5508 5511 5515 5518 5521 5523 5527 5531 5534 5537 5539 5541 5543 5544 5547 5550 5552 5554 5556 5557 5558 5559 5560 5562 5564 5565
5675 5674 5673 5672 5670 5669 5667 5665 5664 5663 5661 5659 5658 5656 5654 5652 5649 5646 5643 5640 5637 5634 5630 5626 5622 5617 5613 5608 5604 5599 5594 5590 5585 5580 5575 5569 5563 5556 5549 5542 5535 5529 5523 5518 5513 5508 5504 5501 5498 5496 5495 5494 5493 5494 5494 5496 5498 5500 5502 5504 5507 5510 5513 5516 5518 5521 5525 5528 5531 5534 5536 5538 5539 5542 5544 5547 5549 5551 5553 5554 5555 5556 5557 5559 5560
5673 5672 5671 5669 5668 5667 5665 5663 5662 5660 5659 5657 5656 5654 5652 5649 5647 5644 5641 5638 5635 5631 5628 5624 5620 5616 5611 5607 5602 5598 5593 5589 5584 5579 5574 5569 5563 5556 5549 5542 5535 5529 5523 5518 5513 5508 5504 5500 5497 5495 5494 5493 5492 5492 5492 5493 5495 5497 5499 5501 5503 5506 5509 5511 5514 5516 5519 5522 5525 5528 5530 5532 5534 5536 5539 5541 5544 5546 5549 5550 5551 5551 5553 5554 5556
5670 5669 5668 5667 5666 5664 5663 5661 5660 5658 5657 5655 5654 5652 5649 5647 5644 5642 5639 5636 5633 5629 5625 5622 5618 5614 5610 5606 5601 5597 5592 5588 5583 5579 5574 5568 5562 5556 5549 5542 5535 5529 5524 5519 5514 5509 5504 5500 5497 5495 5493 5492 5491 5491 5491 5491 5492 5494 5496 5498 5500 5502 5505 5507 5509 5512 5514 5517 5519 5522 5524 5527 5529 5531 5533 5536 5539 5541 5544 5545 5546 5547 5549 5550 5552
5668 5667 5666 5665 5664 5662 5661 5659 5658 5657 5655 5654 5652 5649 5647 5645 5642 5640 5637 5634 5631 5627 5624 5620 5617 5613 5609 5605 5600 5596 5591 5587 5583 5578 5574 5568 5563 5557 5551 5544 5538 5532 5526 5520 5515 5510 5505 5501 5498 5495 5493 5492 5491 5490 5490 5490 5491 5492 5493 5495 5497 5499 5502 5504 5506 5508 5510 5512 5514 5517 5519 5521 5524 5526 5528 5531 5534 5536 5538 5540 5542 5543 5545 5547 5548
5666 5665 5664 5663 5662 5660 5659 5657 5656 5655 5653 5652 5650 5647 5645 5643 5640 5638 5635 5632 5629 5626 5622 5619 5615 5612 5608 5604 5599 5595 5591 5587 5582 5578 5573 5568 5563 5558 5553 5547 5541 5534 5528 5521 5516 5511 5506 5502 5499 5496 5494 5492 5491 5490 5490 5490 5490 5490 5492 5493 5495 5497 5499 5501 5503 5504 5506 5508 5510 5512 5514 5517 5519 5521 5523 5526 5528 5530 5532 5535 5537 5540 5541 5543 5545
5664 5663 5662 5661 5660 5658 5657 5656 5654 5653 5651 5650 5648 5645 5643 5640 5638 5635 5633 5630 5627 5624 5621 5617 5614 5610 5606 5602 5598 5594 5590 5586 5582 5577 5572 5568 5563 5558 5553 5548 5542 5536 5529 5524 5518 5513 5508 5504 5500 5497 5495 5493 5492 5490 5490 5489 5490 5490 5491 5492 5493 5495 5496 5498 5500 5502 5503 5504 5506 5508 5510 5512 5515 5517 5519 5521 5523 5526 5528 5531 5533 5535 5537 5540 5542
5662 5661 5660 5659 5658 5657 5655 5654 5652 5651 5649 5647 5646 5643 5641 5639 5636 5633 5631 5628 5625 5622 5619 5616 5612 5609 5605 5601 5597 5593 5589 5585 5581 5577 5573 5568 5564 5559 5554 5548 5543 5537 5531 5526 5520 5515 5511 5506 5502 5499 5496 5494 5492 5491 5490 5490 5489 5490 5490 5491 5492 5493 5494 5496 5498 5500 5501 5502 5503 5505 5506 5508 5510 5512 5514 5517 5519 5521 5524 5526 5528 5531 5533 5535 5537
5660 5660 5659 5657 5656 5655 5654 5652 5651 5649 5647 5645 5644 5642 5640 5637 5634 5632 5629 5627 5624 5621 5618 5615 5611 5608 5604 5600 5596 5592 5588 5584 5580 5576 5573 5569 5564 5559 5554 5549 5544 5539 5534 5528 5523 5518 5513 5509 5505 5501 5498 5496 5494 5492 5491 5490 5489 5489 5490 5490 5491 5492 5493 5494 5496 5497 5499 5500 5501 5502 5503 5505 5506 5508 5510 5512 5515 5517 5519 5521 5523 5526 5528 5530 5532
5659 5658 5657 5656 5654 5653 5652 5651 5649 5647 5646 5644 5642 5640 5638 5636 5633 5630 5627 5625 5622 5619 5616 5613 5610 5606 5603 5599 5595 5591 5587 5583 5580 5576 5572 5568 5564 5560 5556 5551 5546 5541 5536 5531 5526 5521 5516 5512 5508 5504 5501 5498 5496 5494 5492 5491 5490 5489 5489 5490 5490 5491 5491 5492 5494 5495 5496 5498 5499 5500 5501 5502 5503 5504 5506 5508 5510 5512 5514 5516 5518 5520 5522 5524 5526
5657 5656 5655 5654 5652 5651 5650 5649 5648 5646 5644 5642 5640 5638 5636 5634 5631 5629 5626 5623 5620 5617 5615 5612 5609 5605 5602 5598 5594 5591 5587 5583 5579 5575 5572 5568 5564 5561 5557 5552 5548 5543 5538 5533 5529 5524 5519 5515 5511 5507 5504 5501 5498 5496 5494 5492 5491 5490 5489 5489 5490 5490 5490 5491 5492 5493 5494 5495 5496 5497 5498 5499 5500 5501 5502 5504 5506 5507 5509 5511 5513 5515 5517 5519 5520
5655 5654 5653 5652 5651 5649 5648 5647 5646 5644 5643 5641 5639 5637 5634 5632 5630 5627 5624 5622 5619 5616 5613 5610 5607 5604 5600 5597 5593 5590 5586 5582 5578 5575 5571 5567 5564 5561 5557 5553 5549 5545 5540 5536 5531 5527 5522 5518 5514 5510 5507 5504 5501 5498 5496 5494 5492 5491 5490 5489 5489 5489 5490 5490 5491 5491 5492 5493 5493 5494 5495 5496 5497 5498 5499 5501 5502 5503 5505 5507 5508 5510 5512 5514 5515
5654 5653 5652 5650 5649 5648 5647 5645 5644 5643 5641 5639 5637 5635 5633 5630 5628 5625 5623 5620 5617 5614 5611 5608 5605 5602 5599 5596 5592 5589 5585 5582 5578 5574 5571 5567 5564 5561 5557 5554 5550 5546 5542 5538 5534 5530 5525 5521 5517 5513 5510 5507 5504 5501 5498 5496 5494 5492 5491 5490 5489 5489 5489 5489 5490 5490 5490 5491 5491 5492 5493 5494 5495 5496 5497 5498 5499 5500 5501 5503 5504 5505 5507 5508 5510
5652 5651 5650 5649 5647 5646 5645 5644 5642 5641 5639 5637 5635 5633 5631 5629 5626 5624 5621 5619 5616 5613 5610 5607 5604 5601 5598 5595 5592 5588 5585 5581 5578 5574 5571 5567 5564 5561 5558 5554 5551 5547 5544 5540 5536 5532 5528 5524 5520 5516 5513 5509 5506 5503 5501 5498 5496 5494 5492 5491 5490 5489 5489 5488 5488 5489 5489 5489 5489 5490 5491 5491 5492 5493 5494 5495 5496 5497 5498 5499 5500 5501 5502 5503 5505
5650 5649 5648 5647 5646 5645 5643 5642 5640 5639 5637 5635 5633 5631 5629 5627 5625 5622 5620 5617 5615 5612 5608 5605 5602 5599 5597 5594 5591 5587 5584 5581 5577 5574 5571 5567 5564 5561 5558 5555 5551 5548 5544 5541 5538 5534 5530 5527 5523 5519 5516 5512 5509 5506 5503 5501 5498 5496 5494 5492 5491 5490 5489 5488 5488 5488 5488 5488 5488 5489 5489 5489 5490 5491 5492 5492 5493 5494 5495 5496 5497 5498 5499 5500 5500
5648 5647 5646 5645 5644 5643 5642 5640 5638 5637 5635 5633 5631 5629 5627 5625 5623 5621 5618 5616 5613 5610 5607 5604 5601 5598 5595 5592 5590 5587 5583 5580 5577 5574 5570 5567 5564 5561 5557 5555 5552 5549 5545 5542 5539 5535 5532 5529 5525 5522 5519 5515 5512 5509 5506 5503 5501 5498 5496 5494 5492 5491 5490 5489 5488 5487 5487 5487 5487 5487 5488 5488 5488 5489 5489 5490 5491 5492 5493 5493 5494 5495 5495 5496 5497
5646 5646 5645 5644 5642 5641 5639 5638 5636 5635 5633 5631 5629 5627 5625 5623 5621 5619 5617 5614 5612 5609 5606 5603 5600 5597 5594 5592 5589 5586 5583 5580 5576 5573 5570 5567 5564 5561 5557 5554 5552 5549 5546 5542 5539 5536 5533 5530 5527 5524 5521 5518 5514 5511 5508 5505 5503 5500 5498 5496 5494 5492 5490 5489 5488 5488 5487 5487 5486 5486 5486 5486 5486 5487 5487 5488 5489 5489 5490 5491 5491 5491 5492 5493 5493
5644 5643 5642 5641 5640 5639 5637 5636 5634 5633 5631 5629 5627 5625 5623 5621 5619 5617 5615 5613 5610 5608 5605 5602 5599 5596 5593 5590 5588 5585 5582 5579 5576 5573 5570 5567 5563 5560 5557 5554 5551 5549 5546 5543 5540 5537 5534 5531 5528 5525 5522 5519 5516 5514 5511 5508 5505 5503 5500 5498 5496 5494 5492 5490 5489 5488 5487 5487 5486 5486 5485 5485 5485 5485 5485 5486 5486 5487 5487 5488 5488 5489 5489 5490 5490
5642 5641 5640 5639 5638 5636 5635 5633 5632 5630 5629 5627 5625 5623 5621 5619 5616 5614 5612 5610 5608 5606 5603 5601 5598 5595 5592 5589 5586 5583 5581 5578 5576 5573 5570 5566 5563 5560 5557 5554 5551 5548 5546 5543 5540 5537 5535 5532 5529 5526 5524 5521 5518 5515 5513 5510 5507 5505 5502 5500 5497 5495 5493 5491 5490 5488 5487 5487 5486 5485 5485 5484 5484 5484 5483 5483 5484 5484 5485 5485 5485 5486 5487 5487 5487
5639 5638 5637 5636 5635 5634 5632 5631 5630 5628 5627 5625 5623 5621 5619 5616 5614 5612 5610 5608 5606 5604 5601 5599 5597 5594 5591 5588 5585 5582 5580 5577 5575 5572 5569 5566 5563 5559 5556 5553 5550 5547 5545 5542 5540 5537 5535 5532 5530 5527 5524 5522 5519 5516 5514 5511 5509 5506 5504 5501 5499 5497 5495 5493 5491 5489 5488 5487 5486 5485 5484 5484 5483 5483 5482 5482 5482 5482 5482 5483 5483 5483 5483 5484 5484
5636 5635 5634 5633 5632 5631 5630 5628 5627 5625 5624 5622 5620 5618 5616 5614 5612 5610 5607 5605 5603 5600 5599 5596 5594 5592 5589 5587 5584 5581 5579 5576 5573 5571 5568 5565 5562 5559 5556 5553 5550 5547 5544 5542 5539 5537 5535 5532 5530 5527 5525 5522 5520 5517 5515 5512 5510 5507 5505 5503 5501 5498 5496 5494 5492 5490 5489 5487 5486 5485 5484 5483 5482 5482 5482 5481 5481 5480 5480 5480 5480 5481 5481 5481 5481